Weather in Nizhniy Ikorets

Russia / Voronezh Oblast     50°58′56″N   39°42′47″E
temp.,
°C
wind,
m/s
gust,
m/s
humid.,
%
clouds,
%
prec.,
mm/h
press.,
hPa
HPBL,
m
25 february, thu
thu2500:00−13ssw5995100 0.6 1036369
03:00−12ssw51094100 1.1 1034388
06:00−10sw51191100 0.2 1031434
09:00−8sw61189100 0.2 1029399
12:00−5sw71191100 0.1 1027444
15:00−2sw81392100 0.1 1023436
18:000wsw81594100 0.6 1021493
21:00+2w61298100 1.4 1020304
26 february, fri
fri2600:00+2w61398100 0.3 1019325
03:00+2w61199100 0.8 1019277
06:00+2w51198100 0.1 1018274
09:00+2w51099100 0.3 1018249
12:00+2w611100100 0.0 1017364
15:00+3w71398100 0.0 1016453
18:00+3w61498100 0.2 1013387
21:00+3w61497100 0.3 1013378
27 february, sat
sat2700:00+2w51295100 0.0 1011445
03:00+1w51195100 0.0 1010428
06:00+1w51194100 0.0 1009407
09:00+1w61193100 0.1 1008478
12:00+1w61095100 0.1 1007607
15:00+1w61097100 0.3 1007561
18:00+1w51097100 0.1 1006502
21:00+1w51198100 0.3 1006468
28 february, sun
sun2800:000wnw5119398 0.1 1007553
03:00−5nnw7107997 0.4 1010755
06:00−7nnw71078100 0.0 1012770
09:00−8nnw6977100 0.1 1015750
12:00−7nnw6874100 0.1 1016743
15:00−6nnw6873100 0.1 1017766
18:00−6nnw5878100 0.0 1019734
21:00−7n5880100 0.0 1021665
1 march, mon
mon100:00−8n4783100 0.0 1023611
03:00−8nnw478590 0.0 1024545
06:00−9nnw478870 0.0 1026518
09:00−8n478276 0.0 1027518
12:00−6n467596 0.0 1029582
15:00−4nnw467389 0.0 1030632
18:00−4nnw368355 0.0 1030378
21:00−5wnw369131 0.0 1031234